Main page
METAR-TAF:

METAR-TAF

Airports :

Oil platform

J6-a, Netherlands

latitude: 53-49-27N, longitude: 2-56-43E, elevation: 34 m

Current weather observation

The report was made 21 minutes ago, at 08:55 UTC
Wind 18 kt from the West
Temperature 7°C
Humidity 81%
Pressure 1030 hPa
Visibility 10 km or more

METAR: EHJA 260855Z AUTO 28018KT 9999 ///////// 07/04 Q1030 W///H///

Time: 10:16 (09:16 UTC)


TAF: missing

Weather observations and forecasts of more than 4000 airports (METAR and TAF reports).

The available stations are represented by yellow and red dots on the map.

Hover mouse over dot to see the name of the station.

Then click to see weather observations and forecasts.

To change the map : click on the green buttons with a black cross to zoom in, on the green button with a dash to zoom out, or on the green arrows for adjacent maps.


METAR-TAF: